TimeMST,TemperatureF,Dew PointF,Humidity,Sea Level PressureIn,VisibilityMPH,Wind Direction,Wind SpeedMPH,Gust SpeedMPH,PrecipitationIn,Events,Conditions,WindDirDegrees,DateUTC
12:00 AM,11.1,7.5,85,29.89,-9999.0,SW,6.9,-,N/A,,Unknown,230,2012-12-15 07:00:00
1:00 AM,10.4,7.0,86,29.90,-9999.0,SW,6.9,-,N/A,,Unknown,230,2012-12-15 08:00:00
2:00 AM,9.5,5.7,85,29.90,-9999.0,SW,6.9,-,N/A,,Unknown,220,2012-12-15 09:00:00
3:00 AM,8.1,4.5,85,29.91,-9999.0,SW,5.8,-,N/A,,Unknown,220,2012-12-15 10:00:00
4:00 AM,7.3,3.2,83,29.91,-9999.0,SW,8.1,-,N/A,,Unknown,230,2012-12-15 11:00:00
5:00 AM,6.3,2.3,84,29.92,-9999.0,SW,8.1,-,N/A,,Unknown,220,2012-12-15 12:00:00
6:00 AM,6.8,2.8,84,29.92,-9999.0,SW,6.9,-,N/A,,Unknown,220,2012-12-15 13:00:00
7:00 AM,7.3,3.2,83,29.91,-9999.0,SW,6.9,-,N/A,,Unknown,220,2012-12-15 14:00:00
8:00 AM,6.3,1.2,80,29.91,-9999.0,SW,8.1,-,N/A,,Unknown,230,2012-12-15 15:00:00
9:00 AM,4.6,-0.2,80,29.91,-9999.0,WSW,6.9,-,N/A,,Unknown,240,2012-12-15 16:00:00
11:00 AM,10.4,1.6,68,29.89,-9999.0,WSW,8.1,-,N/A,,Unknown,250,2012-12-15 18:00:00
12:00 PM,12.6,3.0,66,29.86,-9999.0,WSW,5.8,-,N/A,,Unknown,250,2012-12-15 19:00:00
1:00 PM,16.2,4.6,61,29.82,-9999.0,WSW,9.2,-,N/A,,Unknown,240,2012-12-15 20:00:00
2:00 PM,19.4,5.5,55,29.78,-9999.0,SW,8.1,-,N/A,,Unknown,230,2012-12-15 21:00:00
3:00 PM,20.8,4.6,50,29.74,-9999.0,WSW,6.9,-,N/A,,Unknown,240,2012-12-15 22:00:00
4:00 PM,17.2,5.9,61,29.74,-9999.0,WSW,8.1,-,N/A,,Unknown,240,2012-12-15 23:00:00
5:00 PM,15.8,6.1,66,29.72,-9999.0,WSW,5.8,-,N/A,,Unknown,250,2012-12-16 00:00:00
6:00 PM,15.1,6.4,69,29.70,-9999.0,West,4.6,-,N/A,,Unknown,270,2012-12-16 01:00:00
7:00 PM,14.0,5.9,70,29.69,-9999.0,West,5.8,-,N/A,,Unknown,270,2012-12-16 02:00:00
8:00 PM,14.9,6.6,70,29.68,-9999.0,WSW,4.6,-,N/A,,Unknown,250,2012-12-16 03:00:00
9:00 PM,13.8,5.5,70,29.66,-9999.0,WSW,5.8,-,N/A,,Unknown,250,2012-12-16 04:00:00
10:00 PM,12.2,4.6,72,29.64,-9999.0,West,6.9,-,N/A,,Unknown,260,2012-12-16 05:00:00
11:00 PM,12.4,5.4,73,29.63,-9999.0,WSW,8.1,-,N/A,,Unknown,240,2012-12-16 06:00:00